Wind_Speed
4 4 5 7 8 8 10 10 11 12 12 12 12 13 14 15 16 16 17 18 17 16 16 16 16 16 16 16 17 17 17 16 16 17 17 18 18 18 18 17 16 15 15 14 14 14 14 14 14 14 14 14 14 13 12 11 10 10 9 9 9 10 10 10 10 11 11 11 12 12 12 13 13 13 14 14 14 14 14 13 13 13 13 12 11
4 4 6 7 8 9 9 10 11 11 11 11 12 13 14 15 15 16 17 18 18 17 16 16 16 15 15 16 16 16 16 16 15 15 16 16 17 17 17 17 16 15 15 14 14 14 14 14 14 14 14 14 13 13 12 11 11 10 10 10 10 10 10 10 10 11 11 11 11 11 11 12 12 12 13 13 14 14 14 14 14 14 14 13 12
3 5 6 7 8 9 9 10 10 10 10 11 12 13 14 15 15 15 16 17 18 18 17 16 15 15 15 15 15 15 15 15 14 14 14 14 15 16 16 17 16 16 15 14 14 14 14 14 14 14 14 13 13 13 12 12 11 11 11 11 11 11 11 11 11 11 11 11 11 11 11 11 11 11 12 12 12 13 13 14 14 15 15 14 13
4 5 6 7 7 8 8 9 9 9 9 10 12 13 14 14 14 15 16 17 18 19 18 16 15 15 15 15 14 14 14 14 13 13 13 13 14 15 16 16 17 16 16 15 14 14 14 14 14 14 14 13 13 13 13 13 12 12 12 12 12 12 12 12 12 12 12 12 11 11 11 11 11 11 11 11 12 12 12 13 13 14 15 14 14
5 6 7 7 6 6 7 8 9 10 10 10 12 13 14 14 14 14 15 16 18 18 18 17 16 15 14 14 14 13 13 13 13 12 12 12 13 14 15 16 16 16 16 16 15 14 14 14 14 14 14 14 14 14 13 13 13 13 12 12 12 12 12 13 13 13 12 12 12 11 11 11 11 11 11 12 12 12 12 12 12 13 14 15 15
6 6 7 6 5 5 5 7 8 10 10 11 11 12 13 14 14 14 15 16 17 18 18 17 16 15 15 14 13 12 12 12 12 11 11 11 12 12 14 15 15 16 16 16 15 15 14 14 13 13 13 14 14 14 13 13 13 13 13 12 12 12 12 12 12 12 12 12 12 12 12 12 12 12 12 12 12 12 12 12 12 13 13 14 15
5 6 6 5 3 3 4 6 8 10 11 11 12 12 13 14 14 14 15 15 16 17 18 17 16 15 15 14 13 12 11 10 11 11 11 10 10 11 12 13 14 14 15 15 15 15 14 13 13 13 13 13 13 13 13 13 13 13 12 12 12 12 12 12 12 12 12 12 12 12 12 12 12 12 12 12 12 13 13 13 13 13 13 14 15
5 5 4 3 3 3 4 6 8 10 11 12 12 12 13 13 13 13 14 15 16 16 17 17 16 15 14 13 12 11 10 10 10 10 10 10 10 10 11 11 12 13 13 14 14 14 14 14 13 13 13 13 13 13 13 13 12 12 12 12 12 12 11 11 12 12 12 12 12 12 12 12 12 12 12 13 13 13 14 14 14 14 14 14 15
5 4 4 4 3 4 5 7 8 10 11 12 13 13 13 13 14 13 14 15 15 16 17 16 16 15 14 13 11 10 10 9 9 10 10 10 9 9 9 10 11 12 12 13 13 14 14 14 14 13 13 13 13 13 13 13 13 12 12 12 12 12 12 11 11 11 11 12 12 12 12 12 12 13 13 13 14 14 14 15 15 15 15 15 15
5 5 5 5 5 5 7 8 9 10 11 12 13 13 13 13 14 14 14 15 15 15 16 16 15 14 13 12 11 10 9 9 9 9 9 9 9 8 8 9 9 10 11 11 12 13 13 14 14 14 14 13 13 12 12 12 13 13 12 12 12 12 12 12 12 11 11 11 11 12 12 13 13 13 14 14 14 15 15 15 15 15 16 16 16
8 7 5 5 6 6 8 9 9 10 12 13 13 14 14 14 15 15 15 15 15 15 15 15 14 14 14 13 12 10 9 9 8 8 9 9 9 8 8 7 8 9 9 10 11 12 12 13 14 14 14 14 13 13 12 12 12 13 13 12 12 12 12 12 12 11 11 12 12 12 13 14 14 15 15 15 16 16 16 16 16 16 16 17 17
10 9 7 7 7 8 9 10 10 11 12 13 14 14 15 16 16 16 16 15 15 15 15 15 14 14 14 13 12 11 9 9 8 8 8 9 9 8 8 7 7 7 8 9 10 10 11 12 13 13 14 13 13 13 13 12 12 12 12 12 12 12 12 12 11 11 11 12 12 13 13 14 15 15 16 16 16 17 17 17 17 17 18 18 18
12 11 11 11 10 10 10 11 11 12 13 14 15 16 17 18 18 18 16 16 16 15 15 15 14 15 14 14 13 12 10 9 8 7 8 8 9 8 8 7 7 7 7 8 8 9 10 11 12 13 13 13 13 13 13 12 12 12 12 12 12 12 12 11 11 12 12 12 12 13 14 15 15 16 16 16 17 17 17 18 18 18 18 18 18
14 14 15 15 14 12 13 14 14 15 15 16 17 18 18 19 19 19 18 17 18 17 16 15 15 15 15 15 14 12 10 9 8 7 8 8 9 9 8 7 7 6 6 7 7 8 9 10 12 12 13 13 13 13 13 12 12 12 12 12 11 11 11 10 11 11 12 13 13 13 14 14 15 15 16 16 17 17 17 17 17 17 18 18 18
17 17 19 19 17 17 17 18 18 18 18 18 19 20 20 21 21 21 19 19 19 19 18 16 15 16 16 15 15 13 11 9 8 8 8 8 9 9 9 8 7 6 6 7 7 8 8 9 10 12 13 13 13 13 13 12 12 12 12 12 12 11 10 10 10 10 11 12 13 13 14 14 14 14 15 16 16 16 16 16 16 17 18 18 19
20 20 21 21 20 20 20 20 20 19 19 19 20 21 22 22 23 22 21 21 21 21 19 17 16 16 17 16 15 13 11 10 9 8 8 9 10 10 10 9 8 7 7 7 7 8 8 8 9 11 12 13 13 13 13 12 12 12 12 12 11 11 11 10 10 10 10 10 11 12 12 13 13 14 15 15 16 16 16 16 16 17 19 20 21
23 23 22 22 21 21 21 21 21 20 20 19 20 22 22 23 24 24 23 23 23 22 21 19 18 17 17 17 16 14 12 10 9 8 8 9 10 11 10 10 9 8 7 7 7 8 8 8 9 10 11 12 13 13 12 12 12 12 12 11 11 11 11 11 11 11 10 10 10 11 12 13 13 14 15 15 16 16 17 17 17 18 20 21 23
24 24 23 22 23 23 23 24 23 23 22 21 21 22 23 23 25 25 25 25 24 23 22 20 19 18 17 17 16 14 12 11 10 9 9 10 11 11 11 10 10 9 8 8 8 8 8 8 9 10 10 11 12 12 12 12 12 12 12 11 11 10 10 11 12 12 12 12 12 12 12 13 14 14 15 15 16 17 17 18 18 19 21 22 24
24 24 24 24 25 25 26 26 26 25 24 23 23 23 23 24 25 26 26 26 26 25 23 21 20 18 17 18 17 15 13 11 10 10 10 11 11 12 11 11 10 10 9 9 9 9 9 8 9 9 10 10 11 12 12 12 12 12 12 11 11 11 11 11 12 13 13 14 14 14 14 14 15 15 15 16 16 17 18 19 19 20 22 23 25
25 25 25 26 27 27 27 28 27 27 26 25 25 25 25 26 27 27 27 27 27 25 24 22 20 19 18 18 18 16 13 12 11 10 11 11 12 12 12 11 10 10 10 10 10 10 9 9 9 10 10 10 10 11 12 13 12 12 12 11 11 11 11 11 12 13 14 15 16 16 16 16 16 17 17 17 17 18 18 19 20 21 22 23 24
26 26 26 27 28 29 29 29 29 28 27 26 26 26 27 28 28 28 28 27 27 25 24 23 21 19 18 18 18 16 14 12 11 11 11 12 13 13 12 11 11 10 10 10 11 11 10 10 10 10 10 10 10 11 12 13 12 11 11 11 11 11 12 12 12 13 14 15 16 17 17 17 18 18 19 19 19 19 19 20 20 21 21 22 24
26 27 28 29 30 30 30 30 30 29 28 27 27 28 29 30 30 29 28 27 26 25 24 23 21 19 18 18 17 16 14 12 12 12 12 13 13 13 13 12 11 11 11 11 11 11 11 11 11 11 11 11 11 12 12 13 12 11 10 10 10 11 11 12 12 13 13 14 14 16 16 17 18 18 19 19 20 20 21 21 21 21 22 22 24
27 28 30 30 31 31 31 31 30 29 29 29 29 30 31 32 32 30 28 26 25 24 23 22 21 20 19 18 18 16 14 13 13 12 13 14 14 14 13 12 12 12 12 12 12 12 12 12 12 12 12 11 11 12 13 13 12 11 11 11 11 11 11 11 12 12 12 13 13 14 15 15 16 17 18 19 20 21 21 22 22 22 23 23 24
30 31 32 33 33 33 32 32 31 31 31 31 32 32 33 33 32 30 27 26 25 24 22 21 20 19 19 19 17 16 14 13 13 13 13 14 14 14 14 13 12 12 13 13 13 13 13 13 13 13 12 12 12 13 14 13 12 11 11 11 11 11 11 12 12 12 12 13 13 14 14 15 16 17 18 19 20 21 21 22 23 23 23 24 24
33 33 34 35 35 34 34 33 33 33 33 34 34 34 34 33 31 28 26 25 24 23 22 21 19 19 19 19 17 16 15 14 14 14 14 15 15 15 14 13 13 13 14 14 14 14 14 13 13 13 12 12 12 14 14 13 12 11 11 12 12 12 12 12 13 13 14 14 14 15 16 17 17 18 18 19 19 20 21 21 22 23 23 24 25
36 36 37 37 36 36 36 36 36 36 36 36 36 35 34 32 29 27 25 24 23 22 21 20 19 19 19 18 17 16 15 14 14 14 15 15 15 15 14 14 14 14 14 14 14 14 14 14 14 13 12 11 13 14 14 13 12 11 11 11 11 11 12 12 13 14 14 15 16 17 17 18 19 19 20 20 21 22 22 23 23 24 25 25 25
39 39 39 39 38 38 38 38 38 38 37 36 35 33 32 30 27 26 24 23 22 21 21 20 19 19 19 18 18 17 15 15 14 14 15 15 15 15 14 14 15 15 15 15 15 15 15 14 13 12 11 11 13 14 14 13 12 10 10 10 11 11 12 13 14 14 16 17 17 19 20 21 22 23 23 24 24 24 24 24 25 25 26 27 27
41 41 40 39 39 40 40 40 39 37 35 34 32 32 30 27 26 25 24 22 21 21 20 19 19 19 19 18 18 17 15 15 14 15 15 15 15 15 15 15 16 16 16 15 15 16 16 15 13 11 10 10 12 13 13 12 11 11 10 11 11 11 12 13 15 16 18 19 20 22 23 25 25 26 26 26 26 26 26 26 25 26 26 27 27
42 41 39 38 38 39 39 38 36 33 31 30 30 31 29 26 25 25 23 21 21 21 20 19 19 19 19 19 18 17 15 15 15 15 15 15 16 16 16 16 16 16 16 16 16 17 16 14 12 10 9 10 11 12 12 12 11 11 10 11 12 12 14 15 17 19 20 22 23 25 26 27 27 27 27 27 27 27 27 27 26 26 26 26 27
40 38 36 35 35 36 36 33 30 29 29 29 29 29 28 26 26 25 23 21 20 21 21 20 20 19 19 19 17 16 16 16 15 15 15 16 16 16 17 17 17 17 16 16 17 17 15 13 11 9 9 9 10 11 11 11 11 11 11 12 13 14 16 17 19 21 23 24 25 26 27 28 28 27 27 27 27 27 27 27 26 26 26 26 26
37 34 32 31 31 31 30 28 26 27 27 28 28 29 28 27 27 25 22 21 21 22 21 21 20 20 20 19 17 17 17 16 15 15 16 16 16 16 16 17 17 16 16 16 16 16 14 12 10 9 9 9 10 10 10 10 10 11 12 13 14 16 18 19 21 23 24 26 27 28 28 28 28 28 27 27 27 26 26 26 26 26 26 26 26
32 31 30 28 28 27 26 25 25 26 26 27 28 28 27 27 26 24 22 21 22 22 22 21 21 20 20 19 18 18 17 16 16 16 17 17 16 15 16 17 17 16 16 17 16 15 13 11 10 10 9 9 10 10 10 10 11 12 13 14 16 18 19 21 23 24 25 27 28 29 29 28 28 27 27 26 26 26 26 26 26 26 27 27 27
30 28 26 25 25 24 24 25 26 26 26 26 28 27 26 26 25 23 22 21 22 23 22 22 21 20 21 19 18 18 17 16 16 17 18 17 15 15 16 16 16 17 18 18 16 14 12 11 10 10 10 9 10 10 10 11 12 13 14 16 17 19 20 22 24 25 27 28 29 29 29 29 28 26 25 25 26 26 26 27 27 27 27 28 28
27 26 24 24 23 22 22 24 25 26 26 26 27 26 25 25 25 24 22 22 23 23 22 22 21 21 21 20 19 19 18 17 17 18 18 16 16 16 16 16 16 18 18 16 14 12 11 11 10 10 10 10 10 11 11 11 13 14 16 17 18 19 21 23 25 27 28 29 30 29 29 28 26 25 24 25 26 27 27 27 28 28 29 29 29
25 24 22 21 21 20 21 22 25 27 27 27 27 25 25 25 26 24 22 23 23 22 22 22 21 22 21 20 20 20 19 17 17 18 18 17 17 17 16 16 16 17 15 13 11 11 11 11 11 10 10 10 10 11 12 12 14 15 17 18 18 20 22 24 26 28 29 30 30 29 27 25 24 25 25 26 26 27 28 28 29 30 30 30 30
23 22 20 20 20 20 21 23 25 27 28 27 27 26 26 27 27 25 23 24 22 22 23 22 22 23 23 22 21 20 19 18 18 18 18 17 17 16 16 16 16 14 12 11 11 11 11 11 11 11 10 10 11 12 12 13 15 17 18 18 19 21 23 26 28 29 29 29 28 26 24 24 25 26 26 26 27 27 28 29 30 30 30 30 30
21 20 19 19 20 21 22 23 24 26 26 26 26 27 27 28 27 25 24 25 23 22 23 23 24 24 24 23 22 21 19 18 19 18 18 18 17 16 16 16 15 13 11 11 11 11 12 12 12 11 11 11 12 12 13 14 16 18 19 19 20 22 24 27 28 29 29 27 25 23 23 24 26 27 27 27 27 28 28 29 29 30 30 30 30
20 19 18 18 21 22 23 23 24 25 26 25 26 27 27 28 27 26 26 26 24 24 25 26 26 25 25 24 22 21 19 19 19 19 19 18 16 16 16 15 13 12 12 12 12 12 12 12 12 11 11 12 12 13 14 16 17 18 19 20 20 23 25 27 28 28 26 24 22 22 23 25 26 27 27 27 27 27 27 27 28 28 29 29 29
19 18 18 20 22 23 24 25 25 26 27 28 28 27 27 28 27 26 27 27 26 26 27 28 28 27 26 25 23 21 20 20 20 19 19 18 16 17 16 15 13 12 13 13 13 13 13 12 11 11 12 12 13 14 16 17 18 19 19 20 21 24 26 27 27 25 23 21 21 22 23 25 26 26 26 26 26 26 27 27 27 28 29 29 30
18 18 20 23 23 24 25 26 27 27 29 30 30 28 27 28 27 26 27 28 28 27 28 29 29 27 27 25 23 21 21 21 21 20 19 18 17 17 17 15 14 13 14 14 14 14 13 12 11 11 12 13 14 15 16 18 19 19 20 21 22 24 25 25 24 21 20 20 21 22 23 25 25 24 24 24 24 25 26 26 27 28 28 29 29
18 20 23 24 24 24 25 26 27 28 28 29 30 29 29 29 27 27 28 29 29 28 28 28 28 27 27 25 23 22 22 22 22 21 19 18 18 18 18 17 16 16 16 15 15 14 13 12 11 11 12 13 15 16 17 18 19 20 21 22 23 24 23 22 20 19 19 20 22 23 24 24 23 22 22 23 24 25 26 26 27 27 27 28 28
20 22 25 25 24 25 25 26 27 27 28 28 29 31 31 31 29 28 29 29 29 28 27 28 28 28 28 26 24 24 24 23 23 21 19 18 18 19 18 17 18 18 18 17 15 14 13 12 12 12 12 14 15 17 19 20 20 21 22 22 23 22 20 19 18 18 20 21 22 24 25 25 24 23 23 24 25 25 26 26 27 27 27 27 27
22 24 25 25 24 25 26 26 27 27 27 28 29 31 32 31 30 29 28 27 26 26 28 29 29 30 29 26 25 25 24 24 23 21 19 19 19 19 18 18 18 19 18 17 15 14 13 12 12 13 13 15 16 18 20 21 22 23 24 23 23 21 19 17 17 18 20 22 23 25 26 27 27 26 26 26 26 26 26 27 27 27 27 27 27
23 25 26 25 25 25 26 26 27 26 27 28 30 30 31 30 29 28 25 23 24 26 29 30 30 31 29 26 25 25 25 25 23 20 19 19 19 19 18 18 19 19 17 15 15 14 13 12 12 13 14 15 17 19 21 22 23 24 25 24 23 22 19 18 17 18 20 22 24 25 27 28 28 27 27 27 27 27 26 27 27 27 28 28 28
24 26 26 26 25 26 27 27 26 26 27 29 30 30 30 30 28 26 24 23 23 26 30 31 32 32 29 27 25 25 25 25 22 20 19 20 19 19 19 19 19 18 16 15 15 14 13 12 12 13 14 16 18 19 21 23 24 24 25 25 24 23 21 20 19 20 21 22 24 26 28 28 29 28 27 27 26 26 27 27 28 28 28 28 28
26 26 26 26 26 27 29 28 27 27 29 30 30 30 30 30 27 27 27 26 26 28 31 33 33 32 29 26 25 25 25 24 22 20 20 20 20 19 19 19 19 17 15 15 15 14 12 12 12 13 15 16 18 20 22 23 23 24 24 23 23 23 23 22 22 22 22 23 25 27 28 29 29 28 28 27 27 27 28 28 29 29 28 28 28
27 26 25 26 28 30 31 31 29 29 29 29 30 30 30 30 28 27 27 27 29 31 33 34 34 31 28 25 24 25 25 23 21 21 21 20 20 20 19 19 18 16 15 15 14 13 12 13 13 14 15 17 18 20 21 22 23 23 23 23 23 23 23 23 24 24 24 24 25 27 28 29 29 28 28 28 29 29 29 29 29 29 28 28 28
27 26 26 28 31 34 35 34 30 28 27 27 29 29 28 28 28 28 27 28 29 32 34 35 32 29 26 24 25 25 24 22 21 22 22 20 20 20 20 19 17 15 15 14 13 13 13 13 14 14 16 17 19 20 20 21 22 22 22 22 22 22 23 23 24 25 26 26 27 28 28 28 28 28 28 29 29 29 29 29 28 28 28 27 27
27 26 27 31 36 38 36 32 28 27 27 27 28 28 27 28 29 29 29 30 31 33 35 33 30 27 25 25 26 24 22 21 21 23 22 20 20 20 20 19 16 14 14 14 13 13 14 14 14 15 17 18 20 20 20 20 20 20 20 20 21 21 22 23 24 25 26 27 29 29 29 29 28 28 28 29 29 29 29 29 28 28 27 27 27
27 28 29 33 39 38 32 28 26 26 27 28 29 29 27 28 30 31 31 31 32 34 33 30 28 27 26 27 27 24 22 21 22 23 22 21 21 20 20 18 15 14 14 13 13 14 14 14 15 16 18 19 20 20 20 20 20 19 19 19 20 21 22 23 24 25 26 28 29 30 29 29 28 27 28 28 29 29 29 28 28 28 27 27 27
28 30 32 35 39 36 28 25 25 27 30 30 30 29 27 28 31 33 32 30 30 30 28 26 27 26 27 28 27 25 23 22 23 23 23 21 20 20 19 17 14 14 14 13 13 14 14 15 16 17 18 19 19 19 19 19 19 19 19 19 20 21 22 23 24 25 27 28 29 29 28 28 27 27 27 27 28 28 29 28 28 28 28 28 28
Wind_Direction
56 50 34 17 11 12 13 16 16 11 6 8 17 27 36 37 35 31 27 23 18 18 21 22 21 21 21 22 22 22 21 21 23 25 26 25 26 28 29 30 30 27 24 23 20 18 17 18 19 20 19 19 18 18 17 18 16 14 11 6 0 356 352 349 345 343 341 339 338 336 335 334 334 333 333 333 333 332 331 329 326 322 318 311 304
45 34 26 15 10 12 12 15 16 14 9 9 14 23 34 37 35 30 27 24 20 21 22 21 20 20 21 21 20 19 19 19 21 24 25 26 26 28 30 31 30 28 25 23 19 17 15 15 16 17 18 18 17 16 15 14 12 10 8 5 0 356 353 350 347 345 343 340 338 335 333 331 330 329 330 330 331 331 330 329 327 325 322 318 315
25 14 17 11 7 9 8 10 11 10 7 10 14 20 30 34 33 30 27 25 23 22 23 21 20 20 20 19 17 15 15 16 17 20 24 25 25 28 30 31 30 28 26 23 20 17 15 14 13 14 15 15 15 14 12 11 9 6 5 4 2 359 357 354 352 350 348 345 341 337 334 331 329 327 327 327 328 328 328 328 328 325 322 320 319
2 353 5 5 3 4 2 5 7 3 0 8 14 17 26 30 30 28 26 25 24 24 24 21 19 19 19 17 14 11 11 13 14 16 20 22 24 26 28 30 30 28 26 24 21 18 16 14 12 11 11 12 11 10 9 8 7 5 3 3 2 1 359 358 356 353 351 349 345 341 338 334 331 329 327 327 326 324 324 327 329 326 323 320 318
351 341 347 353 353 356 359 2 4 0 355 1 11 14 20 25 26 25 24 25 25 25 24 21 19 19 18 15 10 6 5 8 10 11 14 18 21 24 26 28 30 29 27 24 22 20 17 14 11 9 7 8 8 7 5 4 4 3 1 0 360 360 359 358 356 355 353 350 347 344 341 338 336 334 331 330 328 325 324 326 328 327 324 321 319
342 334 333 336 341 346 357 1 4 2 355 357 4 8 13 18 20 19 19 22 25 25 25 21 19 18 16 13 7 2 360 2 6 7 8 13 18 21 24 26 28 29 27 25 22 20 17 13 9 7 5 5 4 3 2 1 360 359 359 357 357 357 356 356 355 354 353 351 349 347 345 343 342 339 336 334 332 331 329 328 327 326 325 323 322
329 334 333 327 325 332 355 1 3 2 356 355 356 1 5 9 12 13 13 16 22 24 24 22 19 17 15 10 3 358 354 356 0 3 4 6 12 17 20 22 25 28 28 25 22 19 16 13 8 5 3 2 2 360 358 357 356 355 354 354 353 353 353 353 353 352 352 351 349 348 347 345 344 342 341 339 338 337 334 333 331 329 327 325 323
317 335 351 344 320 321 350 360 2 2 357 355 352 353 357 360 2 5 6 9 16 19 22 22 19 16 12 6 358 353 349 349 354 359 0 0 5 11 15 17 19 23 25 25 23 19 15 12 8 5 3 2 0 358 355 353 351 350 349 349 348 348 350 350 351 351 352 351 349 349 347 346 345 344 344 343 342 340 339 337 336 333 330 328 325
312 324 354 358 341 333 343 352 357 358 357 354 350 346 348 351 352 355 359 2 7 11 17 19 18 15 10 1 353 348 345 344 349 353 356 356 358 2 7 10 13 15 19 21 21 18 15 12 9 6 4 3 0 357 354 350 347 346 346 344 343 344 345 347 349 350 351 350 350 349 348 346 346 345 346 345 344 342 341 340 338 335 332 330 327
322 323 342 354 355 350 346 348 350 353 354 352 348 342 340 343 343 346 350 355 360 3 8 13 14 12 7 358 348 343 341 342 344 347 350 352 352 353 356 2 6 7 10 13 15 14 12 10 8 6 4 3 0 357 354 350 347 344 343 341 340 340 341 345 347 349 350 350 350 350 348 348 348 347 348 347 346 345 344 343 341 339 335 332 330
320 322 328 340 346 350 350 351 350 348 347 346 344 338 337 337 337 339 342 345 351 355 357 3 7 6 3 354 345 340 339 339 340 339 342 345 345 345 345 350 356 359 1 3 5 6 7 7 6 4 3 2 359 357 355 353 349 345 343 341 339 339 340 344 347 349 349 349 350 351 350 350 351 350 350 350 349 348 347 346 345 343 340 337 334
302 307 310 320 326 333 340 346 347 342 338 338 336 332 333 335 333 334 336 336 339 345 348 353 360 0 357 351 343 339 337 335 333 331 334 337 336 336 336 338 345 350 353 353 355 357 359 0 1 1 0 359 357 356 355 354 351 348 345 342 341 341 343 345 348 350 350 351 351 352 352 352 351 350 350 349 349 348 347 346 345 343 342 340 337
281 286 293 299 308 319 326 333 337 334 330 328 327 325 327 331 332 331 330 327 327 333 339 345 351 353 351 347 342 337 335 330 326 322 324 329 328 328 328 328 332 337 341 343 345 346 349 352 354 356 356 356 354 353 353 352 349 348 346 345 343 343 346 348 349 349 350 352 353 353 353 352 351 349 348 347 347 346 344 343 342 340 339 337 335
267 273 280 284 292 302 310 315 319 322 322 320 318 317 321 326 328 329 325 319 318 322 330 338 343 344 344 343 339 335 331 325 320 316 316 321 320 318 319 321 322 323 327 330 333 335 339 343 346 348 350 351 351 350 349 348 346 345 344 344 343 344 347 349 348 348 350 352 352 353 353 353 350 348 346 345 344 343 341 339 338 336 335 333 332
264 268 275 277 284 292 298 303 306 310 312 312 310 311 315 320 322 324 320 313 312 314 321 330 335 335 336 337 336 332 328 321 316 311 310 313 313 311 312 315 314 313 315 318 321 325 329 333 337 340 344 346 346 346 345 343 341 340 340 341 341 341 343 347 347 348 351 351 352 351 352 351 348 346 344 342 341 340 338 335 333 332 331 330 330
267 270 273 274 280 287 292 297 302 306 307 306 305 307 312 315 316 317 315 310 307 309 313 320 325 327 328 330 331 329 324 318 312 306 304 305 306 305 307 310 309 307 307 308 311 315 320 323 326 330 336 341 343 343 341 338 336 335 334 336 338 337 337 339 342 345 347 350 350 349 349 347 345 343 341 339 338 336 335 333 331 329 329 330 330
273 274 277 279 284 289 293 298 302 306 306 305 305 308 310 311 310 310 311 308 304 304 307 311 315 318 321 323 325 324 320 315 308 302 300 299 300 302 304 306 305 305 304 303 304 306 311 314 316 320 328 335 339 338 336 334 330 329 329 331 333 333 330 329 331 334 338 343 344 344 344 344 341 340 338 336 335 334 333 331 330 329 329 329 329
277 280 283 287 291 294 297 299 303 305 307 308 308 309 309 307 306 306 307 305 302 300 301 304 306 310 314 316 318 319 316 311 305 298 296 295 296 299 302 303 304 304 303 301 299 298 301 305 308 311 319 327 332 333 331 329 326 324 325 327 329 328 324 321 321 323 329 334 337 339 340 339 336 334 333 332 332 331 330 329 327 327 327 327 326
279 283 287 290 292 294 297 299 302 305 308 309 309 308 308 305 303 304 303 301 299 297 297 298 300 304 307 309 312 314 312 308 302 295 291 291 293 296 299 301 301 301 301 300 297 295 296 299 301 304 310 317 324 327 327 326 324 323 324 326 326 323 319 315 314 317 324 329 332 334 334 333 330 328 328 328 328 328 327 325 324 324 324 325 324
281 284 288 289 290 293 295 298 300 304 308 309 308 306 305 303 302 302 300 298 295 293 292 293 296 299 301 303 306 309 309 305 299 291 287 288 290 292 295 298 298 298 298 297 295 294 294 296 298 298 301 307 314 321 324 326 325 324 324 325 323 319 314 311 312 316 321 325 328 329 329 328 327 326 326 326 326 326 324 321 320 320 321 322 321
280 284 286 287 289 291 293 296 299 303 306 307 307 305 303 301 300 300 297 294 290 288 288 289 292 294 296 297 301 305 305 301 295 289 285 286 287 288 291 294 294 295 295 294 292 292 291 293 293 294 296 300 309 317 322 324 324 324 323 322 319 316 312 312 314 317 320 322 324 325 325 325 325 326 326 326 325 324 322 319 318 318 318 318 317
277 281 283 284 287 289 292 295 299 302 303 304 304 302 300 299 298 298 294 290 287 285 284 285 288 290 290 292 297 300 300 296 291 288 285 284 284 285 288 291 291 291 292 291 289 288 287 289 290 292 295 299 307 315 318 320 321 320 317 315 313 312 312 313 315 316 317 317 318 319 320 321 322 323 323 322 322 321 320 319 318 318 317 316 315
275 277 279 282 285 288 291 295 298 299 300 300 300 298 297 295 295 294 290 286 284 282 281 282 284 286 287 289 293 296 296 292 288 287 284 282 282 283 286 287 287 289 290 288 286 285 285 287 289 291 295 300 308 314 317 318 318 315 312 309 310 312 313 314 314 314 314 314 315 315 316 317 317 318 319 319 319 320 320 319 319 318 317 316 314
272 274 276 279 282 286 290 293 294 295 296 296 295 294 293 291 290 288 286 284 281 280 280 281 282 283 283 286 290 293 292 289 285 284 281 280 280 281 284 286 287 289 289 287 286 285 285 286 288 290 294 301 308 314 317 318 316 312 309 310 313 315 315 316 315 315 315 317 318 317 318 318 319 320 320 320 320 320 320 319 318 318 317 315 315
270 271 274 277 280 284 287 289 291 292 293 292 292 290 288 286 285 283 282 282 281 281 282 281 280 279 280 285 290 291 290 287 283 281 279 278 279 280 284 287 289 288 287 286 287 285 284 284 285 287 292 301 310 315 317 316 312 310 311 313 314 315 316 317 316 317 318 320 321 321 321 321 320 320 319 318 317 317 317 317 317 316 315 314 315
268 270 272 275 278 282 284 286 288 289 290 289 288 286 284 281 280 279 280 281 281 281 281 279 277 275 279 285 289 289 288 286 280 278 278 277 277 281 286 290 288 286 286 288 288 286 283 282 281 283 293 304 311 315 316 312 310 312 312 312 312 313 316 316 317 318 319 320 321 321 320 318 317 316 316 315 315 314 314 315 314 313 312 312 314
269 270 272 274 277 280 282 284 285 287 287 286 284 281 278 277 276 275 277 279 279 279 278 276 274 273 277 284 286 286 286 282 278 277 276 276 278 283 288 289 287 286 287 287 287 285 282 279 277 281 294 305 311 315 314 311 311 313 311 309 309 313 316 317 318 318 318 319 320 319 317 315 315 314 315 315 316 315 315 314 313 312 311 311 313
268 269 271 273 276 278 281 282 283 284 283 281 279 276 274 272 270 271 273 276 277 277 275 272 270 271 275 280 283 284 282 278 275 274 274 277 279 283 285 286 285 285 286 286 286 284 278 274 273 280 293 303 310 312 312 311 312 312 310 310 313 316 317 317 318 318 317 317 318 316 315 314 314 314 314 315 316 317 317 316 315 314 313 312 313
267 269 270 273 275 277 278 279 280 280 278 276 273 271 269 266 264 267 270 273 275 275 271 268 267 268 273 277 280 281 277 274 272 272 274 276 278 281 284 284 284 283 285 287 287 282 275 272 273 279 290 299 305 308 308 309 310 309 309 311 314 316 316 316 316 316 315 315 316 315 314 314 313 314 315 316 317 318 318 318 317 316 315 314 314
267 269 271 272 273 273 275 275 276 275 273 271 269 267 264 261 261 264 268 271 273 271 266 264 265 267 271 275 278 277 274 272 270 271 273 274 278 282 284 285 284 284 286 287 286 280 273 272 273 276 284 294 299 301 302 303 305 307 308 309 312 313 313 313 314 314 314 314 315 315 314 314 314 315 316 317 317 318 318 318 318 317 316 316 315
268 270 270 270 269 269 270 271 271 270 269 267 265 262 260 259 261 263 266 268 268 266 262 262 263 265 269 273 275 274 272 270 269 271 272 272 277 282 284 285 284 287 289 288 284 277 270 269 269 271 279 289 294 294 293 295 299 303 306 308 310 310 310 311 312 313 314 314 314 315 314 314 315 316 317 318 318 319 320 320 320 319 319 317 316
267 267 267 266 265 265 265 266 266 265 264 264 262 259 259 260 261 261 262 262 262 261 259 259 261 263 267 271 273 272 270 269 269 270 270 271 276 280 281 282 284 289 289 285 281 273 266 264 265 270 278 288 294 293 293 294 297 300 304 307 307 307 308 309 311 313 314 314 314 314 315 315 315 317 320 321 321 322 323 323 322 320 319 318 317
261 262 263 262 262 261 260 260 261 261 260 260 259 258 258 260 260 259 258 259 259 259 259 259 260 262 265 268 271 270 268 267 267 268 269 271 274 276 277 280 284 286 284 280 274 266 260 261 264 270 277 287 294 295 297 299 300 301 303 305 306 307 308 310 312 313 314 314 314 314 315 316 317 320 323 324 325 325 325 324 323 322 321 320 319
255 257 258 258 259 258 256 256 257 258 257 256 255 256 258 260 259 257 256 256 257 258 259 257 257 260 263 266 268 268 267 265 265 266 267 270 272 272 274 280 283 283 281 275 265 257 255 258 263 270 278 286 292 293 297 300 301 302 304 307 309 310 310 311 313 314 315 315 314 315 315 317 320 323 325 326 327 327 326 325 325 325 325 325 324
250 253 254 254 254 254 254 254 255 255 255 253 252 254 257 258 257 254 253 253 254 256 256 254 254 257 261 263 265 268 266 263 262 263 265 268 269 271 275 280 283 283 281 271 260 255 256 260 266 272 280 288 292 293 294 297 301 304 308 311 312 312 311 312 313 314 315 314 314 315 316 318 322 324 326 327 328 327 326 327 327 327 327 327 326
246 247 246 247 249 250 250 250 251 252 252 250 250 253 256 256 254 251 249 251 252 252 252 252 252 254 257 259 262 266 264 260 259 260 264 266 268 273 277 281 282 281 277 269 261 259 260 263 269 274 281 288 291 292 296 300 304 308 312 314 314 312 311 312 313 314 314 314 314 315 317 320 323 325 326 327 327 327 327 327 327 327 327 326 326
240 239 239 242 246 247 247 248 249 248 248 248 248 251 252 252 250 248 248 251 251 249 249 249 249 251 255 257 259 263 260 256 257 260 264 266 270 275 279 282 279 274 271 265 261 260 262 265 269 275 281 286 289 294 299 303 307 311 313 314 313 312 312 313 313 313 313 313 313 316 319 322 324 325 327 328 328 327 327 328 328 327 327 326 325
232 234 238 242 245 245 245 245 245 245 245 246 247 249 248 248 248 247 249 250 248 246 247 246 245 248 253 255 257 259 256 254 256 259 263 266 271 275 279 280 274 268 267 263 259 260 264 268 273 279 284 288 291 296 301 305 308 310 311 311 312 312 312 312 312 311 312 312 314 317 321 323 324 326 327 327 327 328 329 329 329 328 327 326 325
230 236 242 245 245 246 246 246 245 244 244 245 247 248 246 245 247 247 248 248 246 245 245 245 245 246 250 254 255 256 254 252 255 258 262 266 270 273 275 274 267 265 264 262 261 263 268 273 279 285 290 291 294 299 304 307 308 309 309 310 311 312 311 311 310 310 310 311 314 318 321 323 324 325 325 326 327 329 329 329 329 328 327 326 325
231 239 245 246 245 246 248 248 248 246 244 244 245 246 245 244 247 247 247 246 244 244 244 247 250 248 248 250 253 253 252 252 254 257 260 264 266 270 271 268 264 265 266 265 265 267 271 276 283 289 292 294 297 300 305 307 308 308 308 309 310 310 310 309 308 308 308 311 315 319 321 322 322 322 322 324 326 327 328 329 329 328 327 326 325
233 240 245 245 244 246 248 251 251 250 248 246 244 243 243 244 247 246 246 246 244 244 244 248 252 249 245 248 250 250 250 251 253 256 258 261 264 267 269 266 263 263 266 269 269 269 272 277 284 289 291 294 298 301 303 303 303 303 304 307 308 308 308 307 307 307 308 313 316 318 320 321 320 320 321 324 326 328 329 329 329 328 328 327 326
234 239 243 244 244 246 250 252 254 254 254 252 247 244 243 244 245 245 246 247 245 243 242 248 252 246 242 245 247 249 250 251 252 254 256 259 263 265 268 267 263 261 264 269 270 268 270 276 282 285 287 292 297 301 302 301 300 300 302 304 305 307 308 309 309 309 311 315 317 319 321 323 324 323 324 326 327 328 329 329 329 329 329 329 327
234 238 241 243 245 248 251 253 256 259 259 258 253 249 247 245 245 245 248 249 247 243 243 249 249 242 240 242 246 248 250 251 252 254 255 258 261 264 267 266 262 260 262 266 266 264 268 275 279 284 290 295 300 302 302 301 302 303 305 306 307 308 310 312 313 313 313 315 319 322 325 327 327 326 326 326 327 327 328 329 329 329 329 328 327
235 237 239 241 244 248 251 255 259 262 262 261 258 254 250 248 246 247 249 248 245 243 246 250 245 239 239 241 244 249 250 251 253 253 254 257 260 263 265 264 261 258 259 261 261 262 267 275 281 289 296 300 302 302 301 302 304 306 308 310 312 313 315 317 317 316 315 317 320 324 327 327 326 325 324 324 325 326 327 328 328 328 328 326 326
235 236 238 241 245 249 252 256 260 261 259 256 255 254 251 248 246 245 244 243 243 243 246 248 242 238 238 240 244 249 250 252 253 252 253 255 258 262 263 262 258 255 256 258 259 261 268 277 285 294 300 300 301 300 300 301 304 307 310 313 316 318 320 321 320 319 319 320 322 324 326 326 325 323 322 322 323 324 325 326 326 326 326 325 324
236 237 239 243 246 249 252 255 257 256 255 251 247 248 250 247 242 240 240 241 241 242 244 245 242 238 238 241 246 249 251 252 252 250 251 254 257 262 263 260 255 252 253 255 257 261 269 278 286 294 298 299 299 299 300 301 303 306 310 314 318 320 322 322 321 322 322 322 322 323 324 323 322 320 320 321 322 323 324 324 325 325 324 324 324
236 238 241 244 247 250 252 252 251 251 253 249 242 241 243 242 240 241 241 240 239 240 243 244 243 241 240 245 248 249 251 251 249 249 251 254 259 263 263 258 251 248 250 253 255 261 269 276 284 291 295 297 297 298 299 301 304 308 312 317 320 321 321 321 321 323 324 323 322 321 320 319 319 320 320 321 322 322 323 324 324 324 324 324 323
235 237 241 245 247 248 249 248 247 247 250 250 244 239 239 242 243 242 241 238 238 239 240 240 241 241 243 247 249 249 250 249 248 249 251 256 260 263 261 254 246 244 248 251 255 262 269 275 283 290 294 295 295 295 297 301 306 311 315 319 321 321 320 321 322 323 322 321 319 318 318 319 320 321 322 322 322 323 323 323 323 323 323 323 322
234 235 240 245 248 248 249 250 250 251 252 252 246 239 239 245 242 238 236 235 236 237 236 235 235 237 241 245 246 246 247 246 246 249 252 257 261 263 258 247 241 242 247 251 256 264 270 277 286 291 293 294 293 294 297 302 307 313 318 321 322 321 320 320 320 319 318 317 317 318 320 321 322 322 321 322 322 323 323 322 322 322 323 322 322
235 236 240 246 251 253 254 254 253 251 247 246 244 237 236 241 237 233 232 230 233 235 233 232 232 234 238 242 245 246 245 245 247 251 255 258 261 262 253 241 237 241 246 251 258 265 273 281 288 292 293 292 293 295 298 304 310 315 320 321 321 319 318 318 317 316 316 316 317 319 320 321 322 322 321 321 322 322 322 322 323 323 324 324 325
239 241 242 245 251 256 259 257 253 251 246 239 238 236 238 241 235 232 232 228 229 233 233 233 234 235 238 242 246 246 244 245 249 253 256 258 261 257 247 237 235 240 246 253 260 268 276 284 289 291 292 293 295 298 301 308 313 318 321 321 321 320 320 319 318 317 317 317 318 320 320 320 321 322 322 322 323 322 323 323 324 325 326 327 327
Height
5900 5900 5899 5898 5898 5897 5897 5896 5895 5896 5896 5896 5895 5894 5893 5892 5891 5891 5891 5890 5890 5890 5889 5888 5887 5886 5885 5885 5884 5884 5883 5882 5881 5881 5880 5879 5878 5877 5875 5874 5873 5872 5871 5871 5870 5869 5868 5867 5866 5865 5865 5864 5863 5863 5862 5862 5861 5860 5860 5859 5859 5858 5857 5857 5856 5856 5855 5855 5854 5854 5853 5853 5852 5852 5851 5851 5850 5850 5849 5848 5848 5847 5847 5846 5845
5899 5899 5899 5898 5898 5897 5896 5896 5895 5896 5896 5896 5896 5895 5893 5892 5891 5891 5891 5890 5890 5889 5889 5888 5887 5886 5886 5885 5884 5884 5883 5882 5882 5881 5880 5880 5879 5878 5876 5875 5874 5873 5872 5871 5870 5869 5868 5867 5867 5866 5865 5864 5864 5863 5862 5862 5861 5860 5860 5859 5858 5858 5857 5856 5856 5855 5855 5854 5853 5853 5853 5852 5852 5851 5851 5850 5850 5849 5848 5848 5847 5847 5846 5846 5845
5899 5899 5899 5898 5897 5897 5896 5896 5895 5896 5896 5896 5896 5894 5893 5892 5891 5891 5891 5890 5890 5889 5888 5888 5887 5886 5886 5885 5884 5884 5883 5883 5882 5881 5881 5880 5879 5878 5877 5875 5874 5873 5872 5871 5870 5870 5869 5868 5867 5866 5865 5865 5864 5863 5862 5862 5861 5860 5859 5859 5858 5857 5857 5856 5855 5855 5854 5853 5853 5852 5852 5851 5851 5850 5850 5849 5849 5848 5848 5847 5847 5846 5846 5845 5844
5899 5899 5898 5898 5897 5897 5896 5896 5896 5896 5896 5896 5895 5894 5893 5892 5891 5891 5891 5890 5890 5889 5888 5888 5887 5886 5886 5885 5885 5884 5884 5883 5882 5881 5881 5880 5879 5878 5877 5876 5874 5873 5872 5872 5871 5870 5869 5868 5867 5866 5865 5865 5864 5863 5862 5862 5861 5860 5859 5858 5858 5857 5856 5855 5855 5854 5853 5853 5852 5852 5851 5850 5850 5849 5849 5848 5848 5847 5847 5846 5846 5845 5845 5844 5844
5898 5899 5898 5898 5897 5897 5897 5896 5896 5896 5896 5895 5895 5894 5893 5892 5892 5891 5891 5890 5890 5889 5889 5888 5887 5886 5886 5885 5885 5884 5884 5883 5882 5882 5881 5880 5879 5878 5877 5876 5875 5874 5873 5872 5871 5870 5869 5868 5867 5866 5865 5864 5864 5863 5862 5861 5861 5860 5859 5858 5857 5856 5856 5855 5854 5853 5853 5852 5851 5851 5850 5850 5849 5849 5848 5848 5847 5847 5846 5846 5845 5844 5844 5843 5843
5898 5898 5898 5898 5898 5897 5897 5896 5896 5895 5895 5895 5894 5894 5893 5892 5892 5892 5891 5891 5890 5889 5889 5888 5887 5887 5886 5885 5885 5884 5884 5883 5882 5882 5881 5880 5879 5878 5877 5876 5875 5874 5873 5872 5871 5870 5869 5868 5867 5866 5865 5864 5864 5863 5862 5861 5860 5860 5859 5858 5857 5856 5855 5854 5854 5853 5852 5852 5851 5850 5850 5849 5849 5848 5847 5847 5846 5846 5845 5845 5844 5843 5843 5842 5842
5897 5898 5898 5898 5897 5897 5897 5896 5895 5895 5895 5895 5894 5893 5893 5892 5892 5892 5891 5891 5890 5889 5889 5888 5887 5886 5886 5885 5884 5884 5883 5883 5882 5882 5881 5880 5879 5878 5877 5876 5875 5874 5873 5872 5871 5870 5869 5868 5867 5866 5865 5864 5863 5862 5862 5861 5860 5859 5858 5858 5857 5856 5855 5854 5853 5853 5852 5851 5851 5850 5849 5849 5848 5847 5847 5846 5846 5845 5844 5844 5843 5842 5842 5841 5840
5897 5897 5898 5897 5897 5897 5897 5896 5895 5895 5895 5894 5894 5893 5893 5892 5892 5892 5892 5891 5890 5889 5889 5888 5888 5887 5886 5885 5884 5884 5883 5883 5882 5882 5881 5880 5880 5879 5877 5876 5875 5874 5873 5872 5871 5870 5869 5868 5867 5866 5865 5864 5863 5862 5862 5861 5860 5859 5858 5857 5856 5855 5855 5854 5853 5852 5852 5851 5850 5850 5849 5848 5848 5847 5846 5846 5845 5844 5844 5843 5842 5841 5841 5840 5839
5897 5897 5897 5897 5897 5897 5897 5896 5895 5895 5894 5894 5893 5893 5893 5893 5892 5892 5892 5891 5890 5889 5889 5888 5887 5886 5886 5885 5884 5883 5883 5883 5882 5882 5881 5880 5879 5879 5877 5876 5875 5874 5873 5872 5871 5870 5869 5868 5867 5866 5865 5864 5863 5862 5861 5861 5860 5859 5858 5857 5856 5855 5854 5853 5853 5852 5851 5851 5850 5849 5849 5848 5847 5847 5846 5845 5844 5844 5843 5842 5841 5840 5839 5839 5838
5896 5897 5897 5897 5897 5896 5896 5895 5895 5894 5894 5894 5893 5893 5893 5893 5893 5892 5891 5891 5890 5889 5889 5888 5887 5886 5885 5884 5883 5883 5882 5882 5882 5881 5881 5880 5879 5878 5877 5876 5875 5874 5873 5872 5871 5870 5869 5868 5867 5866 5865 5864 5863 5862 5862 5861 5860 5859 5858 5857 5856 5855 5854 5853 5853 5852 5851 5850 5850 5849 5848 5848 5847 5846 5845 5845 5844 5843 5842 5841 5840 5839 5838 5837 5836
5896 5896 5896 5896 5896 5896 5895 5895 5894 5894 5894 5894 5893 5893 5893 5893 5893 5892 5891 5890 5890 5889 5888 5887 5886 5886 5885 5884 5883 5882 5882 5882 5881 5881 5880 5880 5879 5878 5877 5876 5875 5874 5873 5872 5871 5870 5869 5868 5867 5866 5865 5864 5863 5862 5862 5861 5860 5859 5857 5857 5856 5855 5854 5853 5853 5852 5851 5850 5849 5849 5848 5847 5847 5846 5845 5844 5843 5842 5841 5840 5839 5838 5837 5836 5835
5895 5895 5895 5895 5895 5895 5895 5894 5894 5894 5894 5893 5893 5893 5893 5893 5892 5892 5891 5890 5890 5889 5888 5887 5886 5885 5884 5884 5883 5882 5882 5881 5881 5880 5880 5879 5878 5877 5876 5876 5875 5874 5873 5872 5871 5870 5869 5868 5867 5866 5865 5864 5863 5862 5861 5860 5860 5859 5858 5856 5855 5855 5854 5853 5853 5852 5851 5850 5849 5849 5848 5847 5846 5845 5844 5843 5842 5841 5840 5839 5838 5837 5836 5835 5834
5895 5894 5894 5894 5894 5894 5894 5894 5894 5894 5894 5893 5893 5893 5892 5892 5892 5892 5891 5890 5889 5888 5887 5886 5885 5885 5884 5883 5882 5882 5881 5881 5880 5880 5879 5878 5878 5877 5876 5875 5874 5873 5872 5872 5871 5870 5869 5868 5867 5866 5865 5864 5863 5862 5861 5860 5859 5858 5857 5856 5855 5854 5854 5853 5852 5851 5850 5850 5849 5848 5847 5846 5845 5844 5843 5842 5841 5840 5839 5838 5837 5836 5835 5834 5832
5894 5894 5893 5893 5893 5893 5893 5893 5894 5894 5893 5893 5892 5892 5892 5892 5891 5891 5890 5889 5888 5888 5887 5886 5885 5884 5883 5882 5882 5881 5880 5880 5879 5879 5878 5878 5877 5876 5875 5874 5873 5872 5872 5871 5870 5869 5869 5868 5867 5866 5865 5864 5863 5862 5861 5860 5859 5858 5857 5856 5855 5854 5854 5853 5852 5851 5850 5849 5848 5847 5847 5846 5845 5844 5843 5841 5840 5839 5838 5837 5836 5835 5834 5832 5831
5893 5893 5892 5892 5892 5892 5892 5892 5893 5893 5892 5892 5891 5891 5891 5891 5890 5890 5889 5889 5888 5887 5886 5885 5885 5884 5882 5882 5881 5880 5880 5879 5879 5878 5878 5877 5876 5875 5874 5873 5873 5872 5871 5870 5869 5869 5868 5867 5866 5865 5864 5864 5863 5862 5860 5859 5858 5857 5856 5855 5854 5854 5853 5853 5852 5851 5850 5849 5848 5847 5846 5845 5844 5843 5842 5841 5839 5838 5837 5836 5835 5834 5832 5831 5830
5892 5892 5892 5892 5892 5892 5892 5891 5892 5892 5891 5891 5890 5890 5890 5890 5889 5888 5888 5888 5887 5886 5885 5885 5884 5883 5882 5881 5880 5879 5879 5878 5878 5877 5877 5876 5875 5874 5873 5872 5872 5871 5870 5869 5869 5868 5868 5867 5866 5865 5864 5863 5862 5862 5860 5859 5858 5857 5856 5855 5854 5853 5852 5852 5851 5850 5849 5849 5848 5847 5846 5845 5844 5842 5841 5840 5839 5837 5836 5835 5834 5832 5831 5830 5829
5890 5890 5891 5891 5891 5891 5891 5890 5890 5890 5890 5890 5889 5889 5889 5888 5887 5887 5887 5886 5886 5885 5884 5884 5883 5882 5881 5880 5879 5878 5878 5877 5877 5877 5876 5875 5874 5873 5872 5871 5871 5870 5869 5868 5868 5867 5867 5866 5866 5865 5864 5863 5862 5861 5860 5859 5858 5856 5855 5855 5854 5853 5852 5851 5850 5849 5848 5848 5847 5846 5845 5844 5843 5842 5840 5839 5838 5836 5835 5834 5832 5831 5830 5829 5828
5887 5888 5889 5889 5889 5889 5889 5888 5888 5888 5889 5889 5888 5888 5887 5887 5886 5885 5885 5885 5884 5884 5883 5883 5882 5881 5880 5879 5878 5877 5877 5876 5876 5876 5875 5874 5873 5872 5871 5870 5869 5869 5868 5867 5867 5866 5866 5866 5865 5864 5863 5862 5861 5860 5859 5858 5857 5856 5855 5854 5853 5852 5851 5850 5849 5848 5847 5847 5846 5845 5844 5843 5842 5841 5839 5838 5837 5835 5834 5833 5831 5830 5829 5828 5827
5885 5886 5887 5887 5887 5887 5887 5886 5886 5887 5887 5887 5887 5886 5886 5885 5884 5884 5884 5883 5883 5882 5882 5882 5881 5880 5879 5878 5877 5876 5876 5875 5875 5875 5874 5873 5872 5871 5870 5869 5868 5868 5867 5866 5866 5865 5865 5865 5864 5863 5863 5862 5861 5860 5859 5858 5857 5856 5855 5854 5853 5851 5850 5849 5848 5847 5846 5846 5845 5844 5843 5842 5841 5839 5838 5836 5835 5834 5833 5831 5830 5829 5829 5828 5826
5883 5884 5885 5885 5885 5885 5885 5885 5885 5885 5885 5885 5885 5884 5884 5883 5883 5882 5882 5882 5881 5880 5880 5880 5880 5879 5878 5877 5876 5875 5875 5874 5874 5874 5873 5872 5871 5870 5869 5868 5867 5867 5866 5865 5865 5864 5864 5863 5863 5862 5862 5861 5860 5859 5858 5857 5856 5855 5854 5853 5852 5850 5849 5849 5848 5846 5846 5845 5844 5843 5841 5840 5839 5838 5836 5835 5834 5832 5831 5830 5829 5828 5828 5827 5825
5881 5882 5883 5883 5883 5883 5883 5883 5883 5884 5884 5883 5883 5883 5882 5881 5881 5881 5880 5880 5879 5879 5878 5878 5878 5878 5877 5876 5874 5874 5873 5873 5873 5872 5872 5871 5870 5869 5868 5867 5867 5866 5865 5864 5863 5863 5862 5862 5861 5861 5860 5860 5859 5859 5858 5856 5855 5854 5854 5852 5851 5850 5848 5848 5847 5846 5845 5844 5843 5841 5840 5839 5837 5836 5834 5833 5832 5830 5829 5828 5827 5827 5826 5825 5823
5879 5880 5881 5881 5881 5881 5881 5882 5882 5882 5882 5882 5881 5881 5880 5879 5879 5879 5879 5878 5877 5877 5877 5877 5877 5876 5875 5874 5873 5872 5872 5872 5872 5871 5871 5870 5869 5868 5867 5866 5866 5865 5864 5863 5862 5862 5861 5860 5860 5859 5859 5859 5858 5858 5857 5856 5855 5854 5853 5852 5851 5849 5848 5847 5846 5845 5844 5843 5842 5841 5839 5838 5836 5835 5833 5832 5830 5829 5828 5827 5826 5825 5824 5823 5822
5878 5878 5878 5879 5879 5879 5880 5880 5880 5880 5880 5880 5879 5879 5878 5877 5877 5877 5876 5876 5876 5875 5875 5876 5876 5875 5874 5873 5872 5871 5871 5871 5870 5870 5870 5869 5868 5867 5866 5865 5865 5864 5863 5862 5861 5861 5860 5859 5859 5859 5858 5858 5857 5857 5856 5855 5854 5853 5852 5851 5850 5849 5848 5847 5846 5845 5844 5843 5842 5840 5839 5837 5836 5834 5832 5831 5829 5828 5826 5825 5824 5824 5823 5821 5820
5876 5876 5876 5877 5877 5878 5878 5878 5878 5878 5878 5878 5877 5877 5876 5875 5875 5875 5874 5874 5874 5874 5874 5874 5874 5873 5872 5871 5870 5870 5870 5869 5869 5869 5868 5867 5866 5866 5865 5864 5864 5863 5862 5861 5861 5860 5859 5859 5858 5858 5858 5857 5857 5856 5855 5854 5853 5852 5851 5850 5849 5848 5847 5846 5845 5844 5843 5842 5841 5839 5838 5836 5835 5833 5831 5830 5828 5826 5825 5824 5823 5822 5821 5819 5818
5873 5873 5874 5874 5875 5876 5876 5876 5876 5876 5876 5875 5875 5874 5873 5873 5873 5873 5872 5872 5872 5873 5873 5873 5872 5872 5870 5870 5869 5869 5868 5868 5868 5867 5866 5866 5865 5865 5864 5863 5863 5862 5861 5861 5860 5859 5859 5858 5858 5857 5857 5856 5856 5855 5854 5853 5852 5851 5851 5849 5848 5847 5846 5845 5844 5843 5842 5841 5840 5838 5837 5835 5834 5832 5830 5829 5827 5826 5824 5823 5822 5821 5819 5818 5816
5870 5871 5871 5872 5873 5873 5874 5874 5874 5873 5873 5873 5872 5872 5871 5870 5871 5870 5870 5871 5871 5871 5871 5871 5871 5870 5869 5868 5868 5867 5867 5867 5866 5866 5865 5864 5864 5863 5863 5862 5862 5861 5860 5860 5859 5859 5858 5857 5857 5856 5856 5856 5855 5854 5853 5852 5852 5851 5850 5849 5848 5846 5845 5844 5843 5842 5841 5840 5839 5838 5836 5834 5833 5831 5830 5828 5826 5825 5823 5822 5821 5819 5817 5816 5815
5868 5868 5869 5870 5871 5871 5871 5871 5871 5871 5870 5870 5869 5868 5868 5868 5868 5868 5868 5869 5869 5869 5869 5869 5869 5868 5867 5867 5866 5866 5866 5865 5865 5864 5863 5863 5863 5862 5862 5861 5860 5860 5859 5859 5858 5857 5857 5856 5856 5855 5855 5855 5854 5854 5852 5852 5851 5850 5849 5848 5847 5846 5845 5844 5843 5841 5840 5839 5838 5837 5835 5833 5832 5830 5828 5826 5824 5823 5821 5820 5819 5817 5815 5814 5812
5865 5866 5866 5868 5868 5868 5867 5868 5868 5868 5867 5867 5866 5865 5865 5866 5866 5865 5866 5867 5867 5867 5867 5867 5867 5866 5866 5865 5865 5864 5864 5863 5863 5863 5862 5861 5861 5861 5861 5860 5859 5858 5858 5857 5857 5856 5855 5855 5855 5854 5854 5854 5853 5853 5852 5851 5850 5850 5849 5848 5847 5846 5844 5843 5842 5840 5839 5838 5837 5835 5834 5832 5830 5828 5826 5824 5823 5821 5819 5818 5817 5815 5813 5812 5810
5862 5863 5864 5865 5866 5865 5864 5864 5865 5865 5864 5864 5863 5862 5862 5863 5863 5863 5864 5865 5865 5865 5865 5865 5865 5864 5864 5864 5863 5863 5862 5862 5862 5861 5860 5860 5860 5859 5859 5858 5858 5857 5856 5856 5856 5855 5854 5854 5854 5853 5853 5853 5852 5852 5851 5851 5850 5849 5848 5847 5846 5845 5844 5842 5841 5839 5838 5836 5835 5834 5832 5830 5829 5827 5825 5823 5821 5819 5817 5816 5814 5813 5811 5809 5808
5859 5860 5862 5862 5862 5862 5861 5862 5862 5862 5861 5861 5860 5860 5860 5861 5860 5861 5862 5863 5863 5863 5863 5863 5862 5862 5862 5862 5861 5861 5861 5861 5860 5860 5859 5858 5858 5858 5858 5857 5856 5855 5855 5854 5854 5854 5853 5853 5853 5852 5852 5851 5850 5850 5850 5850 5849 5848 5848 5847 5845 5844 5843 5841 5840 5838 5836 5835 5833 5832 5830 5828 5827 5825 5823 5821 5819 5817 5815 5814 5812 5810 5809 5807 5806
5857 5858 5859 5859 5859 5859 5859 5859 5860 5859 5858 5858 5858 5858 5858 5858 5858 5859 5860 5861 5861 5861 5861 5861 5860 5860 5860 5859 5859 5859 5859 5859 5859 5858 5857 5857 5857 5856 5856 5855 5854 5854 5853 5853 5852 5852 5852 5852 5852 5851 5850 5849 5849 5848 5848 5848 5848 5847 5846 5846 5844 5843 5842 5840 5839 5837 5835 5833 5832 5830 5828 5827 5825 5823 5821 5819 5817 5816 5814 5812 5810 5808 5806 5805 5803
5854 5854 5855 5856 5856 5856 5857 5857 5857 5856 5856 5855 5855 5855 5856 5856 5856 5856 5857 5858 5858 5858 5858 5858 5858 5858 5857 5857 5857 5857 5857 5857 5857 5856 5856 5855 5855 5855 5854 5853 5853 5852 5852 5851 5851 5850 5850 5850 5850 5850 5849 5848 5847 5846 5846 5846 5846 5846 5845 5844 5843 5842 5840 5839 5837 5836 5834 5832 5830 5828 5826 5825 5823 5821 5819 5817 5815 5814 5812 5810 5808 5806 5804 5802 5801
5850 5851 5852 5853 5853 5854 5854 5854 5854 5854 5853 5853 5852 5853 5853 5853 5854 5854 5855 5856 5856 5856 5856 5856 5856 5856 5855 5855 5855 5855 5856 5855 5855 5855 5854 5854 5853 5853 5852 5852 5851 5851 5850 5849 5849 5849 5848 5848 5848 5848 5848 5847 5846 5845 5845 5845 5844 5844 5844 5843 5842 5840 5839 5837 5836 5834 5832 5830 5828 5826 5824 5822 5821 5819 5817 5815 5813 5812 5809 5808 5806 5804 5802 5800 5798
5848 5848 5849 5850 5850 5851 5851 5851 5851 5851 5850 5850 5850 5851 5851 5851 5851 5852 5853 5853 5853 5853 5854 5854 5854 5853 5853 5853 5853 5854 5854 5854 5853 5853 5853 5852 5852 5850 5850 5850 5850 5849 5849 5848 5847 5847 5847 5847 5847 5847 5846 5845 5845 5844 5844 5844 5843 5843 5842 5841 5840 5839 5837 5835 5834 5832 5830 5828 5826 5824 5822 5820 5818 5817 5815 5813 5812 5809 5807 5805 5803 5802 5800 5798 5796
5845 5846 5847 5847 5848 5848 5848 5848 5848 5848 5847 5847 5848 5848 5849 5849 5849 5850 5850 5850 5851 5851 5851 5852 5852 5851 5851 5851 5851 5851 5852 5852 5851 5851 5851 5851 5850 5849 5849 5848 5848 5848 5847 5846 5846 5846 5846 5846 5845 5845 5844 5844 5843 5843 5843 5842 5842 5841 5840 5840 5839 5837 5835 5834 5832 5830 5828 5826 5824 5822 5820 5818 5816 5815 5813 5812 5810 5808 5805 5803 5801 5799 5798 5796 5794
5843 5844 5845 5845 5845 5845 5845 5845 5845 5845 5844 5845 5845 5846 5846 5846 5847 5847 5848 5848 5849 5849 5849 5849 5849 5849 5848 5849 5849 5849 5849 5850 5850 5850 5849 5849 5848 5848 5847 5847 5847 5846 5845 5845 5844 5844 5845 5844 5844 5844 5843 5842 5842 5841 5841 5840 5840 5839 5838 5838 5837 5836 5834 5832 5830 5828 5826 5824 5822 5820 5819 5817 5815 5813 5812 5810 5808 5806 5803 5801 5799 5798 5796 5794 5792
5840 5841 5842 5842 5842 5842 5842 5842 5842 5842 5842 5842 5843 5843 5843 5844 5844 5845 5846 5846 5847 5847 5847 5847 5847 5846 5846 5846 5847 5847 5847 5848 5848 5848 5848 5847 5847 5846 5846 5846 5845 5845 5844 5843 5843 5843 5843 5843 5843 5842 5842 5841 5840 5840 5839 5838 5838 5837 5837 5836 5835 5834 5832 5830 5828 5826 5824 5822 5821 5819 5817 5815 5813 5811 5810 5808 5806 5804 5802 5800 5798 5796 5794 5792 5790
5838 5838 5839 5839 5840 5839 5839 5840 5840 5840 5840 5840 5840 5840 5840 5841 5842 5843 5843 5844 5844 5845 5845 5844 5844 5844 5844 5844 5845 5845 5845 5846 5846 5846 5846 5846 5846 5845 5845 5845 5844 5844 5843 5842 5842 5841 5841 5841 5841 5841 5840 5840 5839 5838 5837 5837 5836 5836 5835 5835 5834 5832 5831 5829 5827 5825 5823 5821 5819 5818 5816 5814 5812 5810 5808 5806 5804 5802 5800 5798 5796 5794 5792 5790 5788
5835 5836 5836 5836 5837 5836 5837 5837 5837 5837 5837 5837 5837 5837 5838 5839 5840 5841 5841 5841 5842 5842 5842 5842 5842 5842 5842 5842 5843 5843 5843 5844 5844 5844 5844 5844 5844 5844 5844 5844 5843 5842 5842 5841 5840 5840 5840 5840 5840 5839 5839 5838 5837 5837 5836 5835 5834 5834 5834 5833 5832 5831 5829 5827 5825 5823 5821 5819 5818 5816 5814 5812 5810 5808 5806 5804 5802 5800 5799 5797 5795 5793 5791 5788 5786
5833 5833 5834 5834 5834 5833 5834 5834 5834 5834 5834 5834 5834 5835 5836 5836 5838 5838 5839 5839 5839 5839 5839 5840 5840 5839 5839 5840 5841 5841 5841 5842 5842 5842 5842 5842 5842 5842 5843 5843 5842 5841 5840 5840 5839 5839 5839 5839 5838 5838 5837 5836 5836 5835 5835 5834 5833 5832 5832 5831 5831 5830 5828 5826 5824 5821 5819 5818 5816 5814 5813 5811 5809 5807 5805 5803 5801 5799 5797 5795 5793 5791 5789 5787 5785
5830 5831 5831 5831 5831 5831 5831 5831 5831 5831 5831 5832 5832 5833 5834 5834 5835 5835 5836 5836 5837 5837 5837 5838 5837 5837 5837 5838 5839 5839 5839 5839 5839 5840 5840 5840 5841 5841 5841 5841 5841 5840 5839 5839 5838 5838 5838 5837 5837 5836 5836 5835 5834 5834 5833 5833 5832 5831 5830 5830 5829 5828 5826 5824 5822 5820 5818 5816 5814 5813 5811 5810 5808 5806 5804 5802 5800 5798 5796 5794 5792 5789 5787 5785 5783
5828 5828 5828 5828 5828 5828 5828 5829 5829 5829 5830 5830 5831 5831 5831 5831 5831 5832 5833 5833 5834 5835 5835 5836 5835 5835 5835 5836 5837 5837 5838 5838 5837 5838 5838 5838 5839 5839 5840 5839 5839 5839 5838 5838 5837 5837 5836 5836 5835 5835 5834 5833 5832 5832 5831 5831 5830 5829 5829 5828 5827 5826 5824 5823 5821 5818 5816 5814 5812 5811 5809 5807 5805 5803 5802 5800 5798 5796 5794 5792 5790 5787 5785 5783 5781
5826 5826 5826 5826 5826 5826 5826 5826 5827 5828 5828 5828 5829 5828 5828 5828 5829 5830 5831 5831 5832 5833 5834 5834 5833 5833 5833 5834 5835 5836 5836 5836 5836 5836 5836 5837 5837 5838 5838 5837 5837 5837 5837 5836 5836 5835 5835 5834 5834 5833 5832 5832 5831 5830 5829 5828 5828 5827 5826 5825 5824 5823 5822 5821 5819 5817 5814 5812 5811 5809 5807 5804 5803 5801 5799 5798 5796 5794 5792 5790 5788 5785 5783 5781 5779
5823 5824 5824 5824 5824 5824 5824 5824 5825 5825 5826 5826 5826 5826 5826 5826 5827 5828 5829 5830 5831 5832 5832 5831 5831 5830 5831 5833 5833 5834 5834 5834 5834 5834 5835 5835 5835 5836 5835 5835 5835 5835 5835 5835 5834 5834 5833 5832 5832 5831 5831 5830 5829 5829 5828 5827 5825 5824 5823 5821 5821 5820 5819 5818 5817 5815 5813 5811 5809 5807 5805 5803 5801 5799 5797 5796 5794 5792 5790 5788 5786 5783 5781 5779 5777
5821 5821 5822 5822 5822 5822 5821 5821 5822 5822 5821 5821 5822 5823 5824 5824 5825 5826 5827 5828 5829 5829 5829 5829 5828 5829 5830 5831 5832 5832 5832 5833 5833 5833 5833 5833 5833 5834 5833 5833 5833 5833 5834 5834 5833 5833 5832 5831 5831 5830 5829 5829 5828 5827 5826 5825 5824 5822 5820 5819 5817 5816 5815 5815 5814 5813 5811 5809 5807 5805 5803 5801 5799 5797 5795 5794 5792 5790 5788 5786 5783 5781 5779 5776 5774
5818 5819 5819 5819 5819 5818 5818 5818 5818 5818 5817 5816 5818 5820 5821 5822 5823 5824 5825 5825 5826 5826 5826 5826 5826 5827 5828 5829 5830 5830 5831 5831 5831 5831 5831 5831 5832 5832 5831 5831 5831 5832 5832 5832 5832 5831 5831 5830 5829 5829 5828 5827 5827 5826 5824 5823 5822 5820 5819 5817 5816 5814 5813 5812 5811 5810 5809 5808 5806 5803 5801 5799 5797 5795 5793 5791 5790 5788 5786 5783 5781 5779 5776 5774 5771
5816 5816 5817 5816 5815 5814 5813 5813 5814 5814 5813 5814 5815 5817 5818 5820 5821 5821 5822 5823 5822 5823 5823 5824 5825 5826 5827 5828 5828 5829 5829 5829 5829 5829 5829 5830 5830 5830 5829 5829 5830 5830 5831 5831 5830 5830 5829 5829 5828 5828 5827 5826 5825 5825 5823 5822 5820 5819 5817 5816 5814 5812 5811 5809 5808 5807 5806 5805 5804 5802 5800 5798 5796 5793 5791 5789 5787 5785 5783 5781 5778 5776 5773 5771 5769
5813 5814 5814 5813 5810 5808 5806 5808 5810 5812 5812 5813 5813 5814 5816 5817 5819 5819 5819 5819 5820 5820 5821 5822 5823 5825 5826 5827 5827 5827 5827 5828 5828 5828 5828 5828 5828 5828 5827 5828 5828 5829 5829 5829 5829 5828 5828 5827 5827 5826 5826 5825 5824 5823 5822 5820 5819 5817 5816 5814 5812 5811 5809 5808 5806 5805 5804 5803 5802 5800 5798 5796 5794 5791 5789 5787 5785 5783 5781 5778 5776 5774 5771 5769 5766
5810 5810 5810 5808 5803 5802 5804 5807 5810 5812 5812 5811 5811 5811 5813 5814 5815 5815 5815 5816 5817 5817 5818 5819 5821 5823 5824 5824 5824 5825 5826 5826 5826 5826 5827 5827 5826 5826 5826 5826 5826 5827 5827 5827 5827 5827 5826 5826 5825 5825 5824 5824 5823 5822 5821 5819 5818 5816 5815 5813 5811 5810 5808 5807 5805 5804 5802 5801 5799 5797 5795 5793 5791 5789 5787 5785 5783 5780 5778 5776 5774 5771 5769 5767 5764
5807 5807 5806 5803 5798 5801 5806 5808 5810 5810 5809 5808 5808 5809 5810 5810 5811 5810 5811 5812 5813 5814 5815 5817 5819 5820 5821 5822 5822 5823 5824 5824 5824 5824 5825 5825 5824 5824 5824 5825 5825 5825 5825 5825 5825 5825 5825 5824 5824 5823 5823 5822 5821 5820 5819 5818 5816 5815 5814 5812 5811 5809 5808 5806 5804 5803 5801 5799 5797 5795 5793 5791 5789 5787 5785 5783 5780 5778 5776 5773 5771 5769 5767 5764 5762
5803 5802 5801 5797 5796 5801 5805 5807 5808 5807 5805 5805 5805 5807 5807 5807 5808 5807 5807 5809 5811 5812 5813 5815 5816 5818 5818 5819 5821 5822 5822 5822 5822 5823 5823 5823 5822 5823 5823 5823 5824 5824 5823 5823 5823 5823 5823 5823 5823 5822 5822 5821 5820 5818 5817 5816 5815 5813 5812 5811 5809 5807 5806 5804 5802 5801 5799 5797 5795 5793 5791 5789 5787 5785 5783 5781 5779 5776 5773 5771 5769 5766 5764 5762 5759